User: anonymous   Login
Location: Unspecified
(0.0000°N, 0.0000°E)
Time: 22:36:59
(UTC+00:00)
Language:

ELEKTRO-L - Orbit

View from above orbital plane
View from above orbital plane
View from above satellite
View from above satellite

Ground track
Ground track

The orbit data is extracted from the following two-line orbital elements,

1 37344U 11001A   15062.11044656 -.00000118  00000-0  00000+0 0  9995
2 37344 000.7599 081.0313 0002090 185.7974 009.3694 01.00274351 15113
Epoch (UTC): 03 March 2015 02:39:02
Eccentricity: 0.0002090
inclination: 0.7599°
perigee height: 35776 km
apogee height: 35794 km
right ascension of ascending node: 81.0313°
argument of perigee: 185.7974°
revolutions per day: 1.00274351
mean anomaly at epoch: 9.3694°
orbit number at epoch: 1511

The dashed part of the orbit path shows where the satellite is in the earth's shadow,  

DLR